Franklin, NC

5:53 PM EST on February 27, 2017 (GMT -0500)
Franklin

Weather History for K1A5 - June, 2013

Change the Weather History Date:

Sunday, June 16, 2013

  Actual Average (KTOC) Record (KTOC)
Temperature  
Mean Temperature 68 °F -  
Max Temperature 81 °F 87 °F 97 °F (2016)
Min Temperature 54 °F 64 °F 71 °F (2014)
Cooling Degree Days 2    
Growing Degree Days 18 (Base 50)    
Moisture  
Dew Point 58 °F    
Average Humidity 73    
Maximum Humidity 97    
Minimum Humidity 41    
Precipitation  
Precipitation 0.02 in - - ()
Sea Level Pressure  
Sea Level Pressure 30.15 in    
Wind  
Wind Speed 0 mph (ESE)    
Max Wind Speed 7 mph    
Max Gust Speed -    
Visibility 8 miles    
Events Fog , Rain    
Averages and records for this station are not official NWS values.
T = Trace of Precipitation, MM = Missing Value Source: NWS Daily Summary

Daily Weather History Graph

Daily Weather History Graph

Search for Another Location

Airport or City:

Trip Planner

Search our weather history database for the weather conditions in past years. The results will help you decide how hot, cold, wet, or windy it might be!

Date:

Astronomy

Jun. 16, 2013 Rise Set
Actual Time 6:18 AM EDT 8:50 PM EDT
Civil Twilight 5:48 AM EDT 9:20 PM EDT
Nautical Twilight 5:12 AM EDT 9:57 PM EDT
Astronomical Twilight 4:31 AM EDT 10:37 PM EDT
Moon 1:38 PM EDT (6/16) 1:08 AM EDT (6/16)
Length of Visible Light 15h 31m
Length of Day
14h 31m
Waxing Crescent, 49% of the Moon is Illuminated
Jun 16
Waxing Crescent
Jun 16
First Quarter
Jun 23
Full
Jun 30
Last Quarter
Jul 8
New

Hourly Weather History & Observations

Time (EDT) Temp. Heat Index Dew Point Humidity Pressure Visibility Wind Dir Wind Speed Gust Speed Precip Events Conditions
12:15 AM 61.7 °F - 58.6 °F 90% 30.18 in 10.0 mi Calm Calm - N/A   Clear
12:35 AM 60.8 °F - 58.6 °F 93% 30.18 in 10.0 mi Calm Calm - N/A   Clear
12:55 AM 59.5 °F - 57.4 °F 93% 30.18 in 7.0 mi Calm Calm - N/A   Clear
1:15 AM 58.5 °F - 57.0 °F 95% 30.18 in 7.0 mi Calm Calm - N/A   Clear
1:35 AM 59.0 °F - 57.7 °F 96% 30.18 in 7.0 mi Calm Calm - N/A   Clear
1:55 AM 58.3 °F - 57.4 °F 97% 30.18 in 5.0 mi Calm Calm - N/A   Clear
2:15 AM 57.4 °F - 56.3 °F 96% 30.17 in 5.0 mi Calm Calm - N/A   Clear
2:35 AM 57.0 °F - 55.9 °F 96% 30.17 in 7.0 mi Calm Calm - N/A   Clear
2:55 AM 56.5 °F - 55.4 °F 96% 30.17 in 4.0 mi Calm Calm - N/A   Clear
3:15 AM 56.3 °F - 55.2 °F 96% 30.17 in 5.0 mi Calm Calm - N/A   Clear
3:35 AM 56.1 °F - 55.0 °F 96% 30.17 in 5.0 mi Calm Calm - N/A   Clear
3:55 AM 55.8 °F - 54.7 °F 96% 30.17 in 5.0 mi Calm Calm - N/A   Clear
4:15 AM 55.2 °F - 54.3 °F 97% 30.17 in 4.0 mi Calm Calm - N/A   Clear
4:35 AM 55.4 °F - 54.5 °F 97% 30.18 in 4.0 mi Calm Calm - N/A   Clear
4:55 AM 55.6 °F - 54.5 °F 96% 30.18 in 4.0 mi Calm Calm - N/A   Clear
5:15 AM 54.5 °F - 53.6 °F 97% 30.18 in 5.0 mi Calm Calm - N/A   Scattered Clouds
5:35 AM 54.9 °F - 53.8 °F 96% 30.19 in 3.0 mi Calm Calm - N/A   Mostly Cloudy
5:55 AM 55.4 °F - 54.1 °F 96% 30.20 in 0.2 mi Calm Calm - N/A Fog Fog
6:15 AM 55.2 °F - 54.0 °F 96% 30.20 in 0.2 mi Calm Calm - N/A Fog Fog
6:35 AM 55.4 °F - 54.1 °F 96% 30.21 in 0.5 mi Calm Calm - N/A Fog Fog
6:55 AM 55.4 °F - 54.1 °F 96% 30.21 in 0.2 mi Calm Calm - N/A Fog Fog
7:15 AM 55.4 °F - 54.1 °F 96% 30.21 in 0.2 mi Calm Calm - N/A Fog Fog
7:35 AM 55.8 °F - 54.5 °F 96% 30.22 in 0.2 mi Calm Calm - N/A Fog Fog
7:55 AM 56.1 °F - 54.9 °F 96% 30.23 in 0.2 mi Calm Calm - N/A Fog Fog
8:15 AM 56.7 °F - 55.4 °F 96% 30.23 in 0.8 mi Calm Calm - N/A   Overcast
8:35 AM 58.1 °F - 56.8 °F 96% 30.23 in 7.0 mi Calm Calm - N/A   Mostly Cloudy
8:55 AM 59.4 °F - 58.1 °F 96% 30.23 in 10.0 mi Calm Calm - N/A   Clear
9:15 AM 61.2 °F - 59.9 °F 96% 30.22 in 10.0 mi Calm Calm - N/A   Clear
9:35 AM 62.2 °F - 60.8 °F 95% 30.21 in 10.0 mi Calm Calm - N/A   Clear
9:55 AM 67.1 °F - 58.8 °F 75% 30.21 in 10.0 mi Calm Calm - N/A   Clear
10:15 AM 69.1 °F - 57.9 °F 68% 30.21 in 10.0 mi Calm Calm - N/A   Clear
10:35 AM 70.5 °F - 58.1 °F 65% 30.20 in 10.0 mi Calm Calm - N/A   Clear
10:55 AM 72.9 °F - 58.6 °F 61% 30.20 in 10.0 mi East 3.5 mph - N/A   Clear
11:15 AM 74.1 °F - 58.1 °F 57% 30.19 in 10.0 mi East 3.5 mph - N/A   Clear
11:35 AM 75.2 °F - 57.6 °F 54% 30.19 in 10.0 mi Calm Calm - N/A   Clear
11:55 AM 75.7 °F - 57.6 °F 53% 30.18 in 10.0 mi Calm Calm - N/A   Clear
12:15 PM 76.3 °F - 57.0 °F 51% 30.18 in 10.0 mi Calm Calm - N/A   Clear
12:35 PM 77.2 °F - 57.6 °F 51% 30.17 in 10.0 mi Calm Calm - N/A   Clear
12:55 PM 78.3 °F - 57.9 °F 49% 30.16 in 10.0 mi SSW 3.5 mph - N/A   Clear
1:15 PM 78.8 °F - 57.7 °F 48% 30.15 in 10.0 mi Calm Calm - N/A   Clear
1:35 PM 79.0 °F - 57.4 °F 47% 30.15 in 10.0 mi Calm Calm - N/A   Scattered Clouds
1:55 PM 79.2 °F - 56.3 °F 45% 30.14 in 10.0 mi Calm Calm - N/A   Scattered Clouds
2:15 PM 79.0 °F - 57.0 °F 47% 30.14 in 10.0 mi Calm Calm - N/A   Scattered Clouds
2:35 PM 80.1 °F 80.4 °F 56.8 °F 45% 30.13 in 10.0 mi ENE 6.9 mph - N/A   Scattered Clouds
2:55 PM 81.5 °F 81.5 °F 57.9 °F 44% 30.12 in 10.0 mi Calm Calm - N/A   Scattered Clouds
3:15 PM 80.2 °F 80.4 °F 56.1 °F 43% 30.12 in 10.0 mi Calm Calm - N/A   Scattered Clouds
3:35 PM 81.0 °F 80.7 °F 55.0 °F 41% 30.11 in 10.0 mi Calm Calm - N/A   Scattered Clouds
3:55 PM 80.8 °F 80.8 °F 56.1 °F 43% 30.11 in 10.0 mi Calm Calm - N/A   Mostly Cloudy
4:15 PM 80.6 °F 80.8 °F 57.7 °F 45% 30.11 in 10.0 mi Calm Calm - N/A   Mostly Cloudy
4:35 PM 78.3 °F - 62.4 °F 58% 30.11 in 10.0 mi Calm Calm - N/A   Overcast
4:55 PM 79.7 °F - 60.3 °F 51% 30.11 in 10.0 mi Calm Calm - N/A   Mostly Cloudy
5:15 PM 81.1 °F 81.4 °F 58.8 °F 46% 30.10 in 10.0 mi Calm Calm - N/A   Mostly Cloudy
5:35 PM 81.3 °F 81.3 °F 57.4 °F 44% 30.10 in 10.0 mi Calm Calm - N/A   Scattered Clouds
5:55 PM 81.5 °F 81.4 °F 57.0 °F 43% 30.09 in 10.0 mi Calm Calm - 0.02 in   Clear
6:15 PM 81.5 °F 81.6 °F 58.1 °F 45% 30.08 in 10.0 mi Calm Calm - N/A   Clear
6:35 PM 80.6 °F 81.4 °F 60.4 °F 50% 30.08 in 10.0 mi Calm Calm - N/A   Scattered Clouds
6:55 PM 78.1 °F - 60.8 °F 55% 30.08 in 10.0 mi Calm Calm - N/A   Scattered Clouds
7:15 PM 77.9 °F - 61.0 °F 56% 30.08 in 10.0 mi SSE 5.8 mph - N/A   Scattered Clouds
7:35 PM 77.9 °F - 61.3 °F 57% 30.09 in 10.0 mi Calm Calm - N/A   Scattered Clouds
7:55 PM 77.0 °F - 61.7 °F 59% 30.09 in 10.0 mi Calm Calm - N/A   Clear
8:15 PM 75.9 °F - 62.2 °F 62% 30.10 in 10.0 mi Calm Calm - N/A   Scattered Clouds
8:35 PM 74.8 °F - 62.6 °F 66% 30.10 in 10.0 mi Calm Calm - N/A   Mostly Cloudy
8:55 PM 72.9 °F - 63.7 °F 73% 30.10 in 10.0 mi Calm Calm - N/A   Overcast
9:15 PM 72.1 °F - 63.5 °F 74% 30.10 in 10.0 mi Calm Calm - N/A   Mostly Cloudy
9:35 PM 70.5 °F - 64.4 °F 81% 30.10 in 10.0 mi Calm Calm - N/A   Mostly Cloudy
9:55 PM 71.6 °F - 63.9 °F 76% 30.11 in 10.0 mi Calm Calm - N/A   Mostly Cloudy
10:15 PM 73.2 °F - 63.0 °F 70% 30.12 in 10.0 mi Calm Calm - N/A Rain Light Rain
10:35 PM 71.1 °F - 64.4 °F 79% 30.12 in 10.0 mi Calm Calm - N/A   Light Drizzle
10:55 PM 69.4 °F - 64.4 °F 84% 30.12 in 10.0 mi Calm Calm - N/A   Scattered Clouds
11:15 PM 69.3 °F - 64.0 °F 83% 30.11 in 10.0 mi Calm Calm - N/A   Scattered Clouds
11:35 PM 70.7 °F - 63.1 °F 77% 30.11 in 10.0 mi Calm Calm - N/A   Mostly Cloudy
11:55 PM 70.5 °F - 63.9 °F 79% 30.12 in 10.0 mi Calm Calm - N/A   Mostly Cloudy